�N����,����,�~����,�C��,���x,�C��,����,���ϕ���,�ő�u�ԕ���,�ő厞����,���˗�,�I�_���x,�n�����x,�ő啗���N��,DTYPE
"16/10/13","00:10",0.0,13.4,87.5,1014.5,299.6,1.0,1.9,326.0,0.00,11.4,18.6,"00:04:56",1
"16/10/13","00:20",0.0,13.1,88.7,1014.5,304.8,1.0,1.4,326.5,0.00,11.3,18.6,"00:13:20",1
"16/10/13","00:30",0.0,12.9,89.6,1014.5,295.1,1.0,1.4,307.4,0.00,11.3,18.4,"00:26:40",1
"16/10/13","00:40",0.0,13.2,89.4,1014.7,312.7,1.2,1.8,318.0,0.00,11.5,18.5,"00:31:02",1
"16/10/13","00:50",0.0,13.0,89.3,1014.5,317.2,1.2,2.2,329.1,0.00,11.3,18.5,"00:42:00",1
"16/10/13","01:00",0.0,12.7,90.0,1014.2,313.5,1.1,1.7,339.7,0.00,11.1,18.3,"00:56:24",1
"16/10/13","01:10",0.0,12.5,90.8,1014.5,313.6,1.2,1.8,327.6,0.00,11.1,18.2,"01:02:42",1
"16/10/13","01:20",0.0,12.3,91.7,1014.5,297.9,1.0,1.3,328.7,0.00,11.0,18.2,"01:11:12",1
"16/10/13","01:30",0.0,12.2,92.1,1014.0,308.1,1.1,1.8,322.7,0.00,11.0,18.4,"01:21:04",1
"16/10/13","01:40",0.0,11.9,92.6,1014.2,296.1,1.0,1.4,312.8,0.00,10.8,18.2,"01:30:02",1
"16/10/13","01:50",0.0,12.2,93.3,1014.2,322.9,1.3,2.2,318.8,0.00,11.2,18.1,"01:46:30",1
"16/10/13","02:00",0.0,12.5,92.2,1014.2,309.2,1.2,2.4,344.5,0.00,11.3,18.0,"01:52:00",1
"16/10/13","02:10",0.0,12.4,92.0,1014.0,308.7,1.1,1.7,325.7,0.00,11.2,18.0,"02:06:56",1
"16/10/13","02:20",0.0,12.3,92.1,1014.2,325.2,1.1,1.9,334.4,0.00,11.1,17.8,"02:15:36",1
"16/10/13","02:30",0.0,12.2,92.0,1014.0,327.7,1.2,2.0,336.7,0.00,11.0,17.8,"02:21:12",1
"16/10/13","02:40",0.0,11.8,92.0,1014.5,299.5,1.0,1.6,315.6,0.00,10.6,17.9,"02:31:36",1
"16/10/13","02:50",0.0,11.5,92.7,1014.5,295.2,0.8,1.3,315.9,0.00,10.4,17.9,"02:45:28",1
"16/10/13","03:00",0.0,11.5,93.3,1014.5,298.5,0.6,1.3,325.0,0.00,10.5,17.8,"02:53:58",1
"16/10/13","03:10",0.0,11.4,93.7,1014.2,285.8,0.6,1.8,337.9,0.00,10.5,17.8,"03:08:22",1
"16/10/13","03:20",0.0,11.4,93.8,1014.2,283.2,0.8,1.2,296.2,0.00,10.5,17.8,"03:10:24",1
"16/10/13","03:30",0.0,11.5,94.0,1014.0,305.4,1.0,1.7,311.7,0.00,10.6,17.5,"03:24:24",1
"16/10/13","03:40",0.0,11.6,94.2,1014.2,321.4,0.7,1.4,335.2,0.00,10.7,17.7,"03:33:28",1
"16/10/13","03:50",0.0,11.5,94.2,1014.0,278.9,0.6,1.2,269.3,0.00,10.6,17.7,"03:40:56",1
"16/10/13","04:00",0.0,11.5,94.4,1014.2,297.0,1.0,1.7,312.3,0.00,10.7,17.6,"03:59:52",1
"16/10/13","04:10",0.0,11.6,94.6,1014.7,299.3,1.1,1.6,317.8,0.00,10.8,17.4,"04:07:12",1
"16/10/13","04:20",0.0,11.6,94.8,1014.7,305.5,0.8,1.4,306.8,0.00,10.8,17.4,"04:18:32",1
"16/10/13","04:30",0.0,11.6,94.8,1014.9,313.3,1.3,2.0,324.2,0.00,10.8,17.5,"04:23:20",1
"16/10/13","04:40",0.0,11.7,94.8,1014.7,329.7,1.0,1.6,336.3,0.00,10.9,17.5,"04:30:32",1
"16/10/13","04:50",0.0,12.0,94.5,1014.9,315.9,1.2,2.0,339.7,0.00,11.2,17.5,"04:47:36",1
"16/10/13","05:00",0.0,12.2,94.0,1014.7,315.4,1.3,2.0,323.6,0.00,11.3,17.5,"04:57:20",1
"16/10/13","05:10",0.0,12.2,93.6,1015.2,318.8,1.2,2.5,327.9,0.00,11.2,17.5,"05:09:40",1
"16/10/13","05:20",0.0,12.7,92.4,1015.4,331.8,1.3,2.2,338.0,0.00,11.5,17.5,"05:10:24",1
"16/10/13","05:30",0.0,13.0,90.8,1015.6,327.1,1.3,2.5,338.2,0.00,11.6,17.6,"05:22:00",1
"16/10/13","05:40",0.0,13.1,89.3,1015.6,317.7,1.2,2.1,336.2,0.00,11.4,17.2,"05:33:12",1
"16/10/13","05:50",0.0,13.0,88.8,1015.4,331.9,1.3,2.4,342.2,0.00,11.2,17.7,"05:44:32",1
"16/10/13","06:00",0.0,12.9,89.4,1015.9,304.3,1.0,1.4,337.0,0.00,11.2,17.5,"05:51:04",1
"16/10/13","06:10",0.0,12.8,90.1,1015.9,323.0,1.3,2.2,337.0,0.00,11.3,17.6,"06:08:02",1
"16/10/13","06:20",0.0,12.8,89.7,1015.9,330.1,1.3,2.2,337.0,0.00,11.2,17.6,"06:12:32",1
"16/10/13","06:30",0.0,12.9,89.8,1016.4,318.4,1.2,1.7,328.6,0.00,11.3,17.2,"06:25:04",1
"16/10/13","06:40",0.0,13.0,89.4,1016.1,316.2,1.1,1.6,312.3,0.00,11.3,17.4,"06:37:44",1
"16/10/13","06:50",0.0,13.3,88.2,1016.6,330.5,1.2,2.2,327.7,0.00,11.4,17.6,"06:42:56",1
"16/10/13","07:00",0.0,13.4,88.2,1015.9,321.0,1.2,1.9,328.5,0.01,11.5,17.5,"06:57:20",1
"16/10/13","07:10",0.0,13.5,87.9,1016.4,317.3,1.2,1.8,327.5,0.01,11.6,17.5,"07:04:48",1
"16/10/13","07:20",0.0,13.8,86.7,1016.6,315.8,1.3,2.2,340.5,0.02,11.7,17.7,"07:16:24",1
"16/10/13","07:30",0.0,14.0,84.8,1016.6,319.8,1.5,2.8,335.4,0.02,11.5,17.5,"07:26:48",1
"16/10/13","07:40",0.0,14.1,83.8,1017.1,307.8,1.2,1.7,315.9,0.01,11.4,17.6,"07:35:36",1
"16/10/13","07:50",0.0,14.3,83.1,1016.6,314.0,1.2,1.8,325.7,0.04,11.5,17.5,"07:45:52",1
"16/10/13","08:00",0.0,14.7,82.7,1016.6,315.8,1.5,2.5,337.4,0.07,11.8,17.6,"07:56:32",1
"16/10/13","08:10",0.0,14.9,81.6,1016.6,311.3,1.5,2.7,337.9,0.07,11.8,17.7,"08:02:24",1
"16/10/13","08:20",0.0,15.2,79.5,1016.6,312.4,1.5,2.5,339.4,0.08,11.7,17.7,"08:12:40",1
"16/10/13","08:30",0.0,15.5,77.9,1017.3,306.1,1.2,2.2,339.6,0.06,11.7,17.7,"08:22:16",1
"16/10/13","08:40",0.0,15.6,78.3,1016.8,321.4,1.2,2.1,339.1,0.07,11.9,17.8,"08:37:52",1
"16/10/13","08:50",0.0,16.0,75.6,1017.3,302.2,0.7,1.3,329.9,0.10,11.7,18.0,"08:40:32",1
"16/10/13","09:00",0.0,16.3,76.9,1017.5,314.8,0.8,2.2,336.4,0.11,12.3,18.1,"08:55:52",1
"16/10/13","09:10",0.0,16.5,74.7,1017.3,319.1,1.1,2.6,338.3,0.10,12.0,18.1,"09:03:44",1
"16/10/13","09:20",0.0,16.6,74.6,1016.6,294.5,0.8,1.7,318.8,0.10,12.1,18.2,"09:18:08",1
"16/10/13","09:30",0.0,17.0,73.5,1017.1,290.7,0.8,1.7,264.9,0.17,12.3,18.3,"09:27:52",1
"16/10/13","09:40",0.0,17.4,72.9,1017.1,291.0,0.7,1.7,234.0,0.17,12.5,18.2,"09:31:44",1
"16/10/13","09:50",0.0,17.2,66.9,1017.3,318.7,0.8,1.9,339.5,0.13,11.0,18.3,"09:43:44",1
"16/10/13","10:00",0.0,17.5,66.4,1017.1,305.3,0.3,1.2,247.4,0.18,11.2,18.9,"09:53:12",1
"16/10/13","10:10",0.0,18.0,68.4,1017.1,283.5,0.6,1.6,352.2,0.18,12.1,18.7,"10:09:44",1
"16/10/13","10:20",0.0,18.5,66.7,1016.8,275.6,0.6,2.1,236.6,0.29,12.2,19.0,"10:17:44",1
"16/10/13","10:30",0.0,17.8,65.0,1016.8,295.1,0.8,1.8,345.3,0.18,11.2,18.9,"10:21:12",1
"16/10/13","10:40",0.0,17.6,63.2,1016.4,291.8,1.0,3.2,231.4,0.13,10.6,19.4,"10:32:56",1
"16/10/13","10:50",0.0,18.3,63.8,1016.8,353.2,1.2,3.2,354.5,0.22,11.4,19.3,"10:40:16",1
"16/10/13","11:00",0.0,18.7,61.7,1016.4,336.4,1.2,2.0,340.1,0.25,11.2,19.5,"10:52:40",1
"16/10/13","11:10",0.0,19.1,58.7,1016.4,37.3,1.1,2.6,10.1,0.36,10.9,19.4,"11:06:40",1
"16/10/13","11:20",0.0,19.3,58.5,1016.1,357.3,1.8,4.0,344.9,0.34,11.0,19.5,"11:15:52",1
"16/10/13","11:30",0.0,19.0,60.3,1015.9,343.1,1.5,2.7,357.2,0.20,11.2,19.7,"11:22:48",1
"16/10/13","11:40",0.0,19.5,58.3,1015.6,338.2,1.8,4.4,342.0,0.28,11.1,19.8,"11:33:36",1
"16/10/13","11:50",0.0,19.8,57.7,1015.6,338.6,1.5,3.6,340.8,0.30,11.3,19.8,"11:42:56",1
"16/10/13","12:00",0.0,19.7,56.6,1015.4,331.2,1.7,4.5,344.9,0.33,10.9,20.0,"11:58:56",1
"16/10/13","12:10",0.0,19.7,54.9,1014.9,321.2,1.5,3.3,331.4,0.28,10.4,19.9,"12:09:36",1
"16/10/13","12:20",0.0,20.4,55.1,1014.5,329.2,0.8,2.7,347.2,0.34,11.1,20.0,"12:12:24",1
"16/10/13","12:30",0.0,20.5,53.2,1014.5,351.3,1.5,3.6,339.4,0.40,10.7,20.4,"12:29:52",1
"16/10/13","12:40",0.0,20.0,55.6,1014.2,344.6,1.5,3.1,351.6,0.20,10.9,20.4,"12:38:00",1
"16/10/13","12:50",0.0,19.8,56.5,1014.5,330.7,1.8,3.9,11.3,0.21,11.0,20.4,"12:42:08",1
"16/10/13","13:00",0.0,20.5,54.5,1014.5,341.5,1.7,3.7,353.0,0.35,11.1,20.8,"12:58:40",1
"16/10/13","13:10",0.0,20.1,53.0,1014.5,347.6,2.5,4.5,326.3,0.37,10.3,20.7,"13:06:48",1
"16/10/13","13:20",0.0,20.6,54.2,1014.2,341.2,2.0,4.0,320.8,0.35,11.1,20.7,"13:17:44",1
"16/10/13","13:30",0.0,20.3,53.9,1014.2,349.8,2.2,5.4,343.9,0.28,10.7,20.8,"13:22:00",1
"16/10/13","13:40",0.0,20.6,53.2,1014.2,323.6,1.7,4.9,346.6,0.31,10.8,20.9,"13:37:20",1
"16/10/13","13:50",0.0,20.4,55.1,1013.8,314.8,1.5,2.8,322.8,0.32,11.1,20.8,"13:47:52",1
"16/10/13","14:00",0.0,20.2,54.9,1014.0,352.0,1.8,4.3,346.6,0.30,10.9,20.9,"13:59:04",1
"16/10/13","14:10",0.0,20.6,53.3,1013.5,345.7,2.0,3.9,324.3,0.34,10.8,21.0,"14:00:16",1
"16/10/13","14:20",0.0,21.3,50.4,1013.8,319.7,1.3,3.4,337.0,0.38,10.6,21.2,"14:12:08",1
"16/10/13","14:30",0.0,21.5,50.5,1013.5,305.5,1.1,2.4,350.1,0.37,10.8,21.3,"14:23:44",1
"16/10/13","14:40",0.0,20.8,51.1,1013.3,344.6,1.8,4.9,354.7,0.34,10.4,21.3,"14:37:04",1
"16/10/13","14:50",0.0,19.7,53.2,1013.5,335.3,2.5,5.4,345.1,0.23,10.0,21.3,"14:42:56",1
"16/10/13","15:00",0.0,19.3,56.1,1013.3,336.6,2.3,4.0,354.3,0.18,10.4,21.4,"14:59:28",1
"16/10/13","15:10",0.0,19.7,56.1,1013.5,331.0,2.1,4.1,351.3,0.21,10.8,21.4,"15:03:28",1
"16/10/13","15:20",0.0,19.7,56.2,1014.0,330.8,2.0,4.0,323.3,0.20,10.8,21.5,"15:14:56",1
"16/10/13","15:30",0.0,19.2,57.0,1014.0,327.5,2.0,3.7,334.5,0.13,10.5,21.1,"15:22:16",1
"16/10/13","15:40",0.0,18.6,57.8,1014.7,332.8,2.3,4.4,341.5,0.11,10.2,21.2,"15:34:40",1
"16/10/13","15:50",0.0,18.6,58.4,1014.7,321.3,2.1,5.9,359.8,0.08,10.3,21.1,"15:48:16",1
"16/10/13","16:00",0.0,18.5,60.3,1014.7,324.4,1.8,4.3,6.1,0.07,10.7,21.0,"15:57:12",1
"16/10/13","16:10",0.0,18.3,59.9,1014.9,335.7,1.7,3.4,339.7,0.06,10.4,20.8,"16:01:52",1
"16/10/13","16:20",0.0,18.1,61.9,1014.9,343.5,1.5,2.6,330.3,0.05,10.7,20.8,"16:11:12",1
"16/10/13","16:30",0.0,17.9,61.0,1014.7,332.7,1.3,3.3,332.8,0.04,10.3,20.8,"16:25:52",1
"16/10/13","16:40",0.0,17.4,62.7,1014.7,320.2,1.6,3.6,320.5,0.01,10.3,20.7,"16:37:28",1
"16/10/13","16:50",0.0,17.1,64.2,1014.7,320.5,1.5,2.5,340.2,0.01,10.3,20.6,"16:43:44",1
"16/10/13","17:00",0.0,17.0,65.9,1014.7,314.0,1.2,2.4,310.2,0.00,10.6,20.6,"16:50:24",1
"16/10/13","17:10",0.0,16.6,65.9,1014.9,314.3,1.3,2.9,342.9,0.00,10.2,20.5,"17:08:08",1
"16/10/13","17:20",0.0,16.5,67.0,1015.2,302.5,1.1,1.9,310.8,0.00,10.4,20.3,"17:17:44",1
"16/10/13","17:30",0.0,16.3,67.8,1015.2,323.1,1.1,2.6,349.2,0.00,10.4,20.2,"17:25:52",1
"16/10/13","17:40",0.0,16.1,68.3,1015.4,311.4,1.1,2.8,340.9,0.00,10.3,20.1,"17:32:56",1
"16/10/13","17:50",0.0,15.9,69.2,1015.6,305.5,1.0,1.7,310.9,0.00,10.3,20.0,"17:46:32",1
"16/10/13","18:00",0.0,15.8,69.7,1015.9,305.8,1.1,2.0,4.9,0.00,10.3,20.0,"17:57:28",1
"16/10/13","18:10",0.0,15.7,70.0,1015.6,314.7,1.0,1.8,330.0,0.00,10.3,20.0,"18:00:40",1
"16/10/13","18:20",0.0,15.7,70.1,1015.4,313.9,1.2,2.8,338.4,0.00,10.3,19.8,"18:11:20",1
"16/10/13","18:30",0.0,15.5,70.7,1015.9,303.6,1.0,1.9,312.6,0.00,10.2,19.7,"18:26:32",1
"16/10/13","18:40",0.0,15.4,70.7,1015.9,310.8,1.0,1.8,313.1,0.00,10.2,19.8,"18:31:20",1
"16/10/13","18:50",0.0,15.3,70.9,1015.9,306.8,1.1,2.9,352.5,0.00,10.1,19.7,"18:49:28",1
"16/10/13","19:00",0.0,15.3,72.7,1015.9,312.9,1.1,1.7,328.9,0.00,10.5,19.6,"18:54:48",1
"16/10/13","19:10",0.0,15.1,73.0,1016.1,311.8,1.0,2.2,321.9,0.00,10.3,19.5,"19:00:48",1
"16/10/13","19:20",0.0,15.3,72.9,1016.1,341.4,1.6,3.1,355.3,0.00,10.5,19.4,"19:14:56",1
"16/10/13","19:30",0.0,15.2,72.8,1016.4,316.2,1.2,2.1,333.5,0.00,10.4,19.4,"19:21:52",1
"16/10/13","19:40",0.0,15.2,73.1,1016.6,310.0,1.1,2.0,335.9,0.00,10.5,19.4,"19:31:44",1
"16/10/13","19:50",0.0,15.1,72.5,1016.4,282.4,1.0,2.4,239.2,0.00,10.2,19.3,"19:40:02",1
"16/10/13","20:00",0.0,15.1,72.8,1016.6,303.3,1.1,2.5,339.3,0.00,10.3,19.2,"19:56:32",1
"16/10/13","20:10",0.0,15.2,72.5,1016.6,322.8,1.3,2.8,336.6,0.00,10.3,19.3,"20:07:52",1
"16/10/13","20:20",0.0,15.1,72.7,1016.8,299.5,1.1,1.8,320.3,0.00,10.3,19.1,"20:18:40",1
"16/10/13","20:30",0.0,15.0,73.2,1016.8,321.5,1.6,3.7,332.7,0.00,10.3,19.2,"20:23:20",1
"16/10/13","20:40",0.0,15.0,72.6,1016.8,317.6,1.3,2.1,337.8,0.00,10.2,19.1,"20:30:08",1
"16/10/13","20:50",0.0,15.1,73.5,1016.8,321.6,1.3,2.9,345.0,0.00,10.4,19.0,"20:47:12",1
"16/10/13","21:00",0.0,15.0,73.1,1016.8,322.6,1.2,2.4,312.4,0.00,10.3,19.0,"20:57:04",1
"16/10/13","21:10",0.0,15.0,72.5,1016.8,314.6,1.3,2.8,339.7,0.00,10.1,18.8,"21:01:44",1
"16/10/13","21:20",0.0,15.0,73.0,1016.6,318.2,1.2,2.7,334.0,0.00,10.2,18.8,"21:13:04",1
"16/10/13","21:30",0.0,14.7,74.6,1016.8,283.5,1.1,1.7,317.3,0.00,10.3,18.8,"21:28:24",1
"16/10/13","21:40",0.0,14.5,75.5,1017.3,288.7,1.2,1.8,339.6,0.00,10.3,18.5,"21:32:08",1
"16/10/13","21:50",0.0,14.5,76.0,1017.1,292.8,1.1,1.7,305.4,0.00,10.4,18.8,"21:44:48",1
"16/10/13","22:00",0.0,14.4,77.2,1017.1,307.6,1.1,1.6,320.0,0.00,10.5,18.7,"21:59:44",1
"16/10/13","22:10",0.0,13.9,79.6,1017.1,317.7,1.1,2.0,326.1,0.00,10.5,18.6,"22:00:16",1
"16/10/13","22:20",0.0,13.6,81.6,1016.8,317.4,1.1,1.8,332.9,0.00,10.6,18.7,"22:19:44",1
"16/10/13","22:30",0.0,13.5,83.0,1016.8,317.4,1.1,1.9,327.1,0.00,10.7,18.5,"22:28:00",1
"16/10/13","22:40",0.0,13.4,83.1,1017.1,302.0,1.2,1.6,306.7,0.00,10.6,18.5,"22:30:40",1
"16/10/13","22:50",0.0,13.3,83.2,1016.8,312.2,1.3,2.0,318.2,0.00,10.6,18.4,"22:43:28",1
"16/10/13","23:00",0.0,13.1,83.4,1017.1,317.7,1.3,1.8,320.3,0.00,10.4,18.4,"22:51:04",1
"16/10/13","23:10",0.0,13.0,83.6,1017.1,318.2,1.3,2.4,334.5,0.00,10.3,18.2,"23:03:54",1
"16/10/13","23:20",0.0,13.1,82.9,1017.1,315.5,1.2,2.1,325.6,0.00,10.3,18.1,"23:15:44",1
"16/10/13","23:30",0.0,13.0,83.1,1016.8,325.4,1.3,2.1,336.0,0.00,10.2,18.2,"23:26:34",1
"16/10/13","23:40",0.0,13.0,83.5,1016.8,326.4,1.5,2.4,319.9,0.00,10.3,18.2,"23:33:44",1
"16/10/13","23:50",0.0,12.8,84.0,1016.6,321.9,1.3,2.4,331.5,0.00,10.2,18.1,"23:43:52",1
"16/10/13","24:00",0.0,12.6,84.8,1017.1,322.1,1.5,2.2,342.6,0.00,10.2,17.8,"23:53:38",1
